Time,TemperatureF,DewpointF,PressureIn,WindDirection,WindDirectionDegrees,WindSpeedMPH,WindSpeedGustMPH,Humidity,HourlyPrecipIn,Conditions,Clouds,dailyrainin,SoftwareType,DateUTC
2013-04-15 00:01:00,73.6,65.5,28.79,SSE,152,8.1,11.9,76,0.00,,,0.00,LWC V2.10 B1813,2013-04-15 05:01:00,
2013-04-15 00:06:00,73.4,65.4,28.79,ENE,62,10.5,10.5,76,0.00,,,0.00,LWC V2.10 B1813,2013-04-15 05:06:00,
2013-04-15 00:11:00,73.4,65.7,28.79,ENE,77,13.6,13.6,77,0.00,,,0.00,LWC V2.10 B1813,2013-04-15 05:11:00,
2013-04-15 00:16:00,73.2,65.6,28.79,SE,141,10.1,17.0,77,0.00,,,0.00,LWC V2.10 B1813,2013-04-15 05:16:00,
2013-04-15 00:21:00,73.2,65.6,28.79,SSW,208,3.1,8.7,77,0.00,,,0.00,LWC V2.10 B1813,2013-04-15 05:21:00,
2013-04-15 00:26:00,73.0,65.8,28.79,South,178,5.4,10.1,78,0.00,,,0.00,LWC V2.10 B1813,2013-04-15 05:26:00,
2013-04-15 00:31:00,72.9,65.6,28.79,South,180,13.6,13.6,78,0.00,,,0.00,LWC V2.10 B1813,2013-04-15 05:31:00,
2013-04-15 00:36:00,72.9,66.0,28.79,SE,124,8.7,8.7,79,0.00,,,0.00,LWC V2.10 B1813,2013-04-15 05:36:00,
2013-04-15 00:41:00,72.7,65.8,28.79,South,186,9.6,11.0,79,0.00,,,0.00,LWC V2.10 B1813,2013-04-15 05:41:00,
2013-04-15 00:46:00,72.5,65.6,28.82,ESE,108,3.6,5.4,79,0.00,,,0.00,LWC V2.10 B1813,2013-04-15 05:46:00,
2013-04-15 00:51:00,72.3,65.4,28.82,South,170,12.8,12.8,79,0.00,,,0.00,LWC V2.10 B1813,2013-04-15 05:51:00,
2013-04-15 00:56:00,72.3,65.8,28.82,South,181,5.4,11.0,80,0.00,,,0.00,LWC V2.10 B1813,2013-04-15 05:56:00,
2013-04-15 01:01:00,72.1,65.3,28.82,SE,126,5.8,7.6,79,0.00,,,0.00,LWC V2.10 B1813,2013-04-15 06:01:00,
2013-04-15 01:06:00,71.8,65.3,28.82,SE,146,7.2,9.6,80,0.00,,,0.00,LWC V2.10 B1813,2013-04-15 06:06:00,
2013-04-15 01:11:00,72.0,65.4,28.82,SSW,195,8.1,8.1,80,0.00,,,0.00,LWC V2.10 B1813,2013-04-15 06:11:00,
2013-04-15 01:16:00,71.6,65.1,28.82,SSE,148,6.7,6.7,80,0.00,,,0.00,LWC V2.10 B1813,2013-04-15 06:16:00,
2013-04-15 01:21:00,71.6,65.1,28.82,SE,133,0.0,6.3,80,0.00,,,0.00,LWC V2.10 B1813,2013-04-15 06:21:00,
2013-04-15 01:26:00,71.6,65.4,28.82,South,173,3.6,11.0,81,0.00,,,0.00,LWC V2.10 B1813,2013-04-15 06:26:00,
2013-04-15 01:31:00,71.4,65.3,28.82,South,189,5.4,8.1,81,0.00,,,0.00,LWC V2.10 B1813,2013-04-15 06:31:00,
2013-04-15 01:36:00,71.2,65.1,28.82,SE,132,4.9,10.1,81,0.00,,,0.00,LWC V2.10 B1813,2013-04-15 06:36:00,
2013-04-15 01:41:00,71.4,65.6,28.82,SSE,152,5.8,8.1,82,0.00,,,0.00,LWC V2.10 B1813,2013-04-15 06:41:00,
2013-04-15 01:46:00,71.1,65.3,28.82,South,180,6.3,6.3,82,0.00,,,0.00,LWC V2.10 B1813,2013-04-15 06:46:00,
2013-04-15 01:51:00,71.1,65.3,28.82,SSE,167,8.1,8.1,82,0.00,,,0.00,LWC V2.10 B1813,2013-04-15 06:51:00,
2013-04-15 01:56:00,70.9,65.4,28.82,SSE,151,3.1,5.8,83,0.00,,,0.00,LWC V2.10 B1813,2013-04-15 06:56:00,
2013-04-15 02:00:00,65.3,61.0,29.06,ESE,102,4.5,10.5,86,0.00,,,0.00,LWC V2.10 B1813,2013-04-15 07:00:00,
2013-04-15 02:01:00,70.7,65.3,28.82,SE,144,5.4,8.7,83,0.00,,,0.00,LWC V2.10 B1813,2013-04-15 07:01:00,
2013-04-15 02:10:00,65.3,61.0,29.06,ESE,102,4.5,10.5,86,0.00,,,0.00,LWC V2.10 B1813,2013-04-15 07:10:00,
2013-04-15 02:20:00,65.3,61.0,29.06,East,85,0.0,10.5,86,0.00,,,0.00,LWC V2.10 B1813,2013-04-15 07:20:00,
2013-04-15 02:30:00,65.3,61.0,29.09,ENE,75,0.0,5.8,86,0.00,,,0.00,LWC V2.10 B1813,2013-04-15 07:30:00,
2013-04-15 02:42:00,69.4,64.7,28.82,SE,136,5.8,6.7,85,0.00,,,0.00,LWC V2.10 B1813,2013-04-15 07:42:00,
2013-04-15 02:47:00,69.3,64.9,28.82,ESE,105,4.9,8.1,86,0.00,,,0.00,LWC V2.10 B1813,2013-04-15 07:47:00,
2013-04-15 02:48:00,69.3,64.9,28.82,ESE,123,5.4,8.1,86,0.00,,,0.00,LWC V2.10 B1813,2013-04-15 07:48:00,
2013-04-15 02:51:00,69.3,64.9,28.82,SSE,152,3.6,8.7,86,0.00,,,0.00,LWC V2.10 B1813,2013-04-15 07:51:00,
2013-04-15 02:56:00,69.3,65.2,28.82,South,173,8.3,10.5,87,0.00,,,0.00,LWC V2.10 B1813,2013-04-15 07:56:00,
2013-04-15 03:01:00,69.1,65.0,28.82,SSE,168,4.9,8.3,87,0.00,,,0.00,LWC V2.10 B1813,2013-04-15 08:01:00,
2013-04-15 03:06:00,69.1,65.0,28.82,SSE,162,4.0,4.9,87,0.00,,,0.00,LWC V2.10 B1813,2013-04-15 08:06:00,
2013-04-15 03:11:00,69.1,65.0,28.82,South,173,4.0,6.3,87,0.00,,,0.00,LWC V2.10 B1813,2013-04-15 08:11:00,
2013-04-15 03:16:00,69.1,65.4,28.82,South,184,5.8,10.1,88,0.00,,,0.00,LWC V2.10 B1813,2013-04-15 08:16:00,
2013-04-15 03:21:00,69.1,65.4,28.82,SE,145,3.6,6.3,88,0.00,,,0.00,LWC V2.10 B1813,2013-04-15 08:21:00,
2013-04-15 03:26:00,69.1,65.4,28.82,South,185,5.8,6.3,88,0.00,,,0.00,LWC V2.10 B1813,2013-04-15 08:26:00,
2013-04-15 03:32:00,69.3,65.5,28.82,SSE,159,3.1,8.3,88,0.00,,,0.00,LWC V2.10 B1813,2013-04-15 08:32:00,
2013-04-15 03:37:00,69.3,65.5,28.82,South,171,4.0,8.1,88,0.00,,,0.00,LWC V2.10 B1813,2013-04-15 08:37:00,
2013-04-15 03:40:00,69.4,65.7,28.82,South,172,7.6,8.1,88,0.00,,,0.00,LWC V2.10 B1813,2013-04-15 08:40:00,
2013-04-15 03:45:00,69.4,65.7,28.82,South,173,8.7,8.7,88,0.00,,,0.00,LWC V2.10 B1813,2013-04-15 08:45:00,
2013-04-15 03:50:00,69.6,65.9,28.82,South,181,5.4,6.3,88,0.00,,,0.00,LWC V2.10 B1813,2013-04-15 08:50:00,
2013-04-15 03:51:00,69.6,65.9,28.82,South,188,5.8,8.7,88,0.00,,,0.00,LWC V2.10 B1813,2013-04-15 08:51:00,
2013-04-15 03:56:00,69.8,66.1,28.82,ESE,121,8.7,8.7,88,0.00,,,0.00,LWC V2.10 B1813,2013-04-15 08:56:00,
2013-04-15 04:01:00,69.8,66.1,28.82,SSW,193,4.9,5.4,88,0.00,,,0.00,LWC V2.10 B1813,2013-04-15 09:01:00,
2013-04-15 04:06:00,69.8,66.1,28.82,SSW,212,6.3,11.0,88,0.00,,,0.00,LWC V2.10 B1813,2013-04-15 09:06:00,
2013-04-15 04:11:00,69.8,66.1,28.82,South,179,6.3,6.3,88,0.00,,,0.00,LWC V2.10 B1813,2013-04-15 09:11:00,
2013-04-15 04:16:00,69.8,66.1,28.85,South,184,3.6,7.6,88,0.00,,,0.00,LWC V2.10 B1813,2013-04-15 09:16:00,
2013-04-15 04:21:00,69.8,66.1,28.85,South,173,12.3,12.3,88,0.00,,,0.00,LWC V2.10 B1813,2013-04-15 09:21:00,
2013-04-15 04:26:00,69.8,66.1,28.85,South,189,5.4,6.7,88,0.00,,,0.00,LWC V2.10 B1813,2013-04-15 09:26:00,
2013-04-15 04:31:00,69.8,66.1,28.85,SE,135,8.7,11.0,88,0.00,,,0.00,LWC V2.10 B1813,2013-04-15 09:31:00,
2013-04-15 04:36:00,69.8,66.1,28.85,SW,219,5.4,8.3,88,0.00,,,0.00,LWC V2.10 B1813,2013-04-15 09:36:00,
2013-04-15 04:41:00,69.6,65.9,28.85,SE,125,7.6,11.0,88,0.00,,,0.00,LWC V2.10 B1813,2013-04-15 09:41:00,
2013-04-15 04:46:00,69.6,65.9,28.85,South,190,6.3,10.5,88,0.00,,,0.00,LWC V2.10 B1813,2013-04-15 09:46:00,
2013-04-15 04:51:00,69.6,65.9,28.85,SSE,153,8.1,10.1,88,0.00,,,0.00,LWC V2.10 B1813,2013-04-15 09:51:00,
2013-04-15 04:56:00,69.6,65.9,28.85,SW,220,10.5,11.0,88,0.00,,,0.00,LWC V2.10 B1813,2013-04-15 09:56:00,
2013-04-15 05:01:00,69.6,65.9,28.85,SE,129,4.0,8.7,88,0.00,,,0.00,LWC V2.10 B1813,2013-04-15 10:01:00,
2013-04-15 05:06:00,69.6,65.9,28.85,South,180,8.1,8.1,88,0.00,,,0.00,LWC V2.10 B1813,2013-04-15 10:06:00,
2013-04-15 05:11:00,69.4,65.7,28.85,ESE,118,4.9,6.3,88,0.00,,,0.00,LWC V2.10 B1813,2013-04-15 10:11:00,
2013-04-15 05:16:00,69.4,65.7,28.85,SSE,159,7.6,10.5,88,0.00,,,0.00,LWC V2.10 B1813,2013-04-15 10:16:00,
2013-04-15 05:21:00,69.4,65.7,28.85,South,179,7.6,12.8,88,0.00,,,0.00,LWC V2.10 B1813,2013-04-15 10:21:00,
2013-04-15 05:26:00,69.4,65.7,28.85,SE,136,8.1,8.1,88,0.00,,,0.00,LWC V2.10 B1813,2013-04-15 10:26:00,
2013-04-15 05:31:00,69.4,65.7,28.85,SSE,165,5.4,12.8,88,0.00,,,0.00,LWC V2.10 B1813,2013-04-15 10:31:00,
2013-04-15 05:36:00,69.4,65.7,28.85,SSE,166,3.6,8.3,88,0.00,,,0.00,LWC V2.10 B1813,2013-04-15 10:36:00,
2013-04-15 05:41:00,69.4,66.0,28.85,South,171,4.0,7.6,89,0.00,,,0.00,LWC V2.10 B1813,2013-04-15 10:41:00,
2013-04-15 05:46:00,69.4,66.0,28.85,SSE,152,5.4,11.9,89,0.00,,,0.00,LWC V2.10 B1813,2013-04-15 10:46:00,
2013-04-15 05:51:00,69.3,65.9,28.85,SSE,153,8.3,8.3,89,0.00,,,0.00,LWC V2.10 B1813,2013-04-15 10:51:00,
2013-04-15 05:56:00,69.3,65.9,28.85,SSE,158,8.1,10.1,89,0.00,,,0.00,LWC V2.10 B1813,2013-04-15 10:56:00,
2013-04-15 06:01:00,69.3,66.2,28.85,South,191,5.8,8.3,90,0.00,,,0.00,LWC V2.10 B1813,2013-04-15 11:01:00,
2013-04-15 06:06:00,69.3,66.2,28.85,SW,216,7.6,8.7,90,0.00,,,0.00,LWC V2.10 B1813,2013-04-15 11:06:00,
2013-04-15 06:11:00,69.3,66.2,28.85,South,179,8.3,8.3,90,0.00,,,0.00,LWC V2.10 B1813,2013-04-15 11:11:00,
2013-04-15 06:16:00,69.3,66.2,28.85,SSE,168,6.3,13.2,90,0.00,,,0.00,LWC V2.10 B1813,2013-04-15 11:16:00,
2013-04-15 06:21:00,69.3,66.2,28.85,South,188,3.1,6.3,90,0.00,,,0.00,LWC V2.10 B1813,2013-04-15 11:21:00,
2013-04-15 06:26:00,69.3,66.2,28.85,South,190,4.0,9.6,90,0.00,,,0.00,LWC V2.10 B1813,2013-04-15 11:26:00,
2013-04-15 06:31:00,69.4,66.4,28.85,SE,126,12.3,12.3,90,0.00,,,0.00,LWC V2.10 B1813,2013-04-15 11:31:00,
2013-04-15 06:36:00,69.4,66.4,28.85,SSW,195,6.3,8.7,90,0.00,,,0.00,LWC V2.10 B1813,2013-04-15 11:36:00,
2013-04-15 06:41:00,69.6,66.2,28.85,South,186,10.5,11.4,89,0.00,,,0.00,LWC V2.10 B1813,2013-04-15 11:41:00,
2013-04-15 06:46:00,69.6,66.2,28.85,South,181,8.1,8.1,89,0.00,,,0.00,LWC V2.10 B1813,2013-04-15 11:46:00,
2013-04-15 06:51:00,69.6,66.2,28.85,ESE,104,7.6,10.1,89,0.00,,,0.00,LWC V2.10 B1813,2013-04-15 11:51:00,
2013-04-15 06:56:00,69.6,66.2,28.85,SSW,202,3.6,8.3,89,0.00,,,0.00,LWC V2.10 B1813,2013-04-15 11:56:00,
2013-04-15 07:01:00,69.6,65.9,28.85,SSE,166,5.4,7.6,88,0.00,,,0.00,LWC V2.10 B1813,2013-04-15 12:01:00,
2013-04-15 07:06:00,69.6,65.9,28.85,SSW,193,2.7,8.1,88,0.00,,,0.00,LWC V2.10 B1813,2013-04-15 12:06:00,
2013-04-15 07:12:00,69.6,65.9,28.85,SE,146,3.6,7.6,88,0.00,,,0.00,LWC V2.10 B1813,2013-04-15 12:12:00,
2013-04-15 07:17:00,69.6,65.9,28.85,SSE,166,10.1,10.1,88,0.00,,,0.00,LWC V2.10 B1813,2013-04-15 12:17:00,
2013-04-15 07:21:00,69.6,65.9,28.85,SSW,200,8.3,8.7,88,0.00,,,0.00,LWC V2.10 B1813,2013-04-15 12:21:00,
2013-04-15 07:27:00,69.6,65.9,28.85,SE,141,5.8,5.8,88,0.00,,,0.00,LWC V2.10 B1813,2013-04-15 12:27:00,
2013-04-15 07:32:00,69.6,65.9,28.85,South,177,5.4,6.3,88,0.00,,,0.00,LWC V2.10 B1813,2013-04-15 12:32:00,
2013-04-15 07:37:00,69.6,65.9,28.85,SSW,203,5.4,7.6,88,0.00,,,0.00,LWC V2.10 B1813,2013-04-15 12:37:00,
2013-04-15 07:42:00,69.6,65.9,28.85,South,178,3.1,5.8,88,0.00,,,0.00,LWC V2.10 B1813,2013-04-15 12:42:00,
2013-04-15 07:47:00,69.8,65.7,28.88,South,189,4.0,7.6,87,0.00,,,0.00,LWC V2.10 B1813,2013-04-15 12:47:00,
2013-04-15 07:52:00,69.8,65.7,28.88,SSW,208,10.1,10.1,87,0.00,,,0.00,LWC V2.10 B1813,2013-04-15 12:52:00,
2013-04-15 07:57:00,69.8,65.4,28.88,South,181,8.1,15.4,86,0.00,,,0.00,LWC V2.10 B1813,2013-04-15 12:57:00,
2013-04-15 08:02:00,69.8,65.4,28.88,South,185,4.9,9.6,86,0.00,,,0.00,LWC V2.10 B1813,2013-04-15 13:02:00,
2013-04-15 08:07:00,69.8,65.4,28.88,SE,138,4.9,10.1,86,0.00,,,0.00,LWC V2.10 B1813,2013-04-15 13:07:00,
2013-04-15 08:12:00,69.8,65.4,28.88,SSW,197,6.3,10.5,86,0.00,,,0.00,LWC V2.10 B1813,2013-04-15 13:12:00,
2013-04-15 08:17:00,69.8,65.4,28.88,SSW,197,8.7,11.0,86,0.00,,,0.00,LWC V2.10 B1813,2013-04-15 13:17:00,
2013-04-15 08:22:00,70.0,65.6,28.88,South,174,4.5,8.3,86,0.00,,,0.00,LWC V2.10 B1813,2013-04-15 13:22:00,
2013-04-15 08:27:00,70.0,65.6,28.88,South,173,4.0,8.1,86,0.00,,,0.00,LWC V2.10 B1813,2013-04-15 13:27:00,
2013-04-15 08:32:00,70.2,65.4,28.88,South,172,5.4,8.7,85,0.00,,,0.00,LWC V2.10 B1813,2013-04-15 13:32:00,
2013-04-15 08:37:00,70.3,65.6,28.88,South,179,8.3,10.1,85,0.00,,,0.00,LWC V2.10 B1813,2013-04-15 13:37:00,
2013-04-15 08:42:00,70.3,65.3,28.88,South,180,8.1,10.5,84,0.00,,,0.00,LWC V2.10 B1813,2013-04-15 13:42:00,
2013-04-15 08:47:00,70.5,65.4,28.88,SE,131,5.8,9.6,84,0.00,,,0.00,LWC V2.10 B1813,2013-04-15 13:47:00,
2013-04-15 08:52:00,70.9,65.8,28.88,South,186,4.0,8.7,84,0.00,,,0.00,LWC V2.10 B1813,2013-04-15 13:52:00,
2013-04-15 08:57:00,70.9,65.4,28.88,SE,127,5.8,7.6,83,0.00,,,0.00,LWC V2.10 B1813,2013-04-15 13:57:00,
2013-04-15 09:02:00,70.9,65.4,28.88,South,179,8.1,10.1,83,0.00,,,0.00,LWC V2.10 B1813,2013-04-15 14:02:00,
2013-04-15 09:07:00,70.9,65.1,28.88,SE,146,5.8,8.7,82,0.00,,,0.00,LWC V2.10 B1813,2013-04-15 14:07:00,
2013-04-15 09:12:00,71.4,65.6,28.88,ESE,111,8.1,11.4,82,0.00,,,0.00,LWC V2.10 B1813,2013-04-15 14:12:00,
2013-04-15 09:17:00,71.6,65.1,28.91,SE,127,8.1,11.0,80,0.00,,,0.00,LWC V2.10 B1813,2013-04-15 14:17:00,
2013-04-15 09:22:00,71.6,65.1,28.91,ESE,112,8.7,12.3,80,0.00,,,0.00,LWC V2.10 B1813,2013-04-15 14:22:00,
2013-04-15 09:27:00,71.6,64.7,28.91,SSE,158,5.8,12.3,79,0.00,,,0.00,LWC V2.10 B1813,2013-04-15 14:27:00,
2013-04-15 09:32:00,71.6,64.4,28.91,SSE,150,8.1,13.2,78,0.00,,,0.00,LWC V2.10 B1813,2013-04-15 14:32:00,
2013-04-15 09:37:00,71.2,63.6,28.91,SE,142,8.7,10.5,77,0.00,,,0.00,LWC V2.10 B1813,2013-04-15 14:37:00,
2013-04-15 09:42:00,71.1,63.5,28.91,South,170,8.3,12.8,77,0.00,,,0.00,LWC V2.10 B1813,2013-04-15 14:42:00,
2013-04-15 09:47:00,70.9,63.3,28.91,South,184,8.7,13.6,77,0.00,,,0.00,LWC V2.10 B1813,2013-04-15 14:47:00,
2013-04-15 09:52:00,70.7,63.1,28.91,SSE,151,12.8,12.8,77,0.00,,,0.00,LWC V2.10 B1813,2013-04-15 14:52:00,
2013-04-15 09:57:00,70.9,62.9,28.91,South,175,13.2,16.8,76,0.00,,,0.00,LWC V2.10 B1813,2013-04-15 14:57:00,
2013-04-15 10:02:00,71.2,62.9,28.91,SSE,153,10.1,17.0,75,0.00,,,0.00,LWC V2.10 B1813,2013-04-15 15:02:00,
2013-04-15 10:07:00,71.4,63.1,28.91,South,173,9.6,12.8,75,0.00,,,0.00,LWC V2.10 B1813,2013-04-15 15:07:00,
2013-04-15 10:12:00,72.0,63.6,28.91,ENE,64,4.0,6.7,75,0.00,,,0.00,LWC V2.10 B1813,2013-04-15 15:12:00,
2013-04-15 10:17:00,72.5,63.7,28.88,ESE,119,8.3,12.3,74,0.00,,,0.00,LWC V2.10 B1813,2013-04-15 15:17:00,
2013-04-15 10:22:00,72.3,63.2,28.88,SSW,210,9.6,12.8,73,0.00,,,0.00,LWC V2.10 B1813,2013-04-15 15:22:00,
2013-04-15 10:27:00,72.3,63.2,28.88,SW,233,6.3,10.5,73,0.00,,,0.00,LWC V2.10 B1813,2013-04-15 15:27:00,
2013-04-15 10:32:00,73.2,63.6,28.91,SSE,152,10.5,12.8,72,0.00,,,0.00,LWC V2.10 B1813,2013-04-15 15:32:00,
2013-04-15 10:37:00,73.4,63.0,28.91,SE,127,10.5,15.4,70,0.00,,,0.00,LWC V2.10 B1813,2013-04-15 15:37:00,
2013-04-15 10:42:00,73.9,63.1,28.91,SSE,151,10.1,11.9,69,0.00,,,0.00,LWC V2.10 B1813,2013-04-15 15:42:00,
2013-04-15 10:47:00,74.3,63.5,28.91,ESE,109,8.3,9.6,69,0.00,,,0.00,LWC V2.10 B1813,2013-04-15 15:47:00,
2013-04-15 10:52:00,74.1,63.3,28.91,ESE,103,10.5,12.8,69,0.00,,,0.00,LWC V2.10 B1813,2013-04-15 15:52:00,
2013-04-15 10:57:00,73.9,63.1,28.91,SSE,153,8.7,10.1,69,0.00,,,0.00,LWC V2.10 B1813,2013-04-15 15:57:00,
2013-04-15 11:02:00,74.3,63.0,28.91,SSE,152,7.6,13.2,68,0.00,,,0.00,LWC V2.10 B1813,2013-04-15 16:02:00,
2013-04-15 11:07:00,74.8,63.6,28.91,South,175,10.1,11.0,68,0.00,,,0.00,LWC V2.10 B1813,2013-04-15 16:07:00,
2013-04-15 11:12:00,74.7,63.4,28.91,SSW,200,4.9,8.7,68,0.00,,,0.00,LWC V2.10 B1813,2013-04-15 16:12:00,
2013-04-15 11:17:00,75.7,64.0,28.91,SE,146,8.1,11.0,67,0.00,,,0.00,LWC V2.10 B1813,2013-04-15 16:17:00,
2013-04-15 11:22:00,76.8,64.1,28.91,SE,139,5.8,5.8,65,0.00,,,0.00,LWC V2.10 B1813,2013-04-15 16:22:00,
2013-04-15 11:27:00,77.0,63.4,28.91,SSE,162,8.7,11.4,63,0.00,,,0.00,LWC V2.10 B1813,2013-04-15 16:27:00,
2013-04-15 11:32:00,76.6,63.5,28.91,East,84,5.8,6.3,64,0.00,,,0.00,LWC V2.10 B1813,2013-04-15 16:32:00,
2013-04-15 11:37:00,76.8,63.2,28.91,SSE,166,13.2,15.4,63,0.00,,,0.00,LWC V2.10 B1813,2013-04-15 16:37:00,
2013-04-15 11:42:00,77.0,63.0,28.91,East,88,6.3,9.6,62,0.00,,,0.00,LWC V2.10 B1813,2013-04-15 16:42:00,
2013-04-15 11:47:00,78.3,64.1,28.91,SSE,155,8.7,13.2,62,0.00,,,0.00,LWC V2.10 B1813,2013-04-15 16:47:00,
2013-04-15 11:52:00,77.7,62.7,28.91,South,179,9.6,13.2,60,0.00,,,0.00,LWC V2.10 B1813,2013-04-15 16:52:00,
2013-04-15 11:57:00,77.7,63.2,28.91,SE,140,11.0,16.3,61,0.00,,,0.00,LWC V2.10 B1813,2013-04-15 16:57:00,
2013-04-15 12:02:00,77.9,63.3,28.91,SSE,161,8.7,10.5,61,0.00,,,0.00,LWC V2.10 B1813,2013-04-15 17:02:00,
2013-04-15 12:07:00,78.4,63.9,28.91,SSE,153,6.3,8.1,61,0.00,,,0.00,LWC V2.10 B1813,2013-04-15 17:07:00,
2013-04-15 12:12:00,77.9,62.9,28.91,South,186,6.3,11.0,60,0.00,,,0.00,LWC V2.10 B1813,2013-04-15 17:12:00,
2013-04-15 12:17:00,78.3,63.2,28.91,SE,143,8.1,10.5,60,0.00,,,0.00,LWC V2.10 B1813,2013-04-15 17:17:00,
2013-04-15 12:21:00,77.7,62.7,28.91,East,90,3.6,8.1,60,0.00,,,0.00,LWC V2.10 B1813,2013-04-15 17:21:00,
2013-04-15 12:26:00,77.7,63.2,28.91,SW,214,4.0,8.3,61,0.00,,,0.00,LWC V2.10 B1813,2013-04-15 17:26:00,
2013-04-15 12:31:00,79.0,63.9,28.91,East,98,6.3,10.5,60,0.00,,,0.00,LWC V2.10 B1813,2013-04-15 17:31:00,
2013-04-15 12:36:00,79.2,63.1,28.91,South,171,6.3,12.8,58,0.00,,,0.00,LWC V2.10 B1813,2013-04-15 17:36:00,
2013-04-15 12:41:00,79.0,63.4,28.91,South,173,2.7,10.1,59,0.00,,,0.00,LWC V2.10 B1813,2013-04-15 17:41:00,
2013-04-15 12:46:00,78.3,63.2,28.91,South,181,5.8,6.3,60,0.00,,,0.00,LWC V2.10 B1813,2013-04-15 17:46:00,
2013-04-15 12:51:00,79.0,63.4,28.91,SSW,209,4.5,7.6,59,0.00,,,0.00,LWC V2.10 B1813,2013-04-15 17:51:00,
2013-04-15 12:56:00,80.4,64.3,28.91,SSE,147,10.1,11.0,58,0.00,,,0.00,LWC V2.10 B1813,2013-04-15 17:56:00,
2013-04-15 13:01:00,80.6,62.9,28.91,South,185,4.0,12.3,55,0.00,,,0.00,LWC V2.10 B1813,2013-04-15 18:01:00,
2013-04-15 13:06:00,81.0,63.8,28.91,SW,222,5.8,8.1,56,0.00,,,0.00,LWC V2.10 B1813,2013-04-15 18:06:00,
2013-04-15 13:11:00,81.3,63.6,28.91,SE,143,2.7,4.9,55,0.00,,,0.00,LWC V2.10 B1813,2013-04-15 18:11:00,
2013-04-15 13:16:00,81.1,62.4,28.88,ESE,119,8.3,14.5,53,0.00,,,0.00,LWC V2.10 B1813,2013-04-15 18:16:00,
2013-04-15 13:21:00,81.1,62.4,28.88,SSE,154,8.7,11.0,53,0.00,,,0.00,LWC V2.10 B1813,2013-04-15 18:21:00,
2013-04-15 13:26:00,81.9,63.0,28.88,South,172,5.4,13.2,53,0.00,,,0.00,LWC V2.10 B1813,2013-04-15 18:26:00,
2013-04-15 13:29:00,82.2,62.3,28.88,South,190,8.7,8.7,51,0.00,,,0.00,LWC V2.10 B1813,2013-04-15 18:29:00,
2013-04-15 13:34:00,82.6,62.6,28.88,SE,128,5.4,11.0,51,0.00,,,0.00,LWC V2.10 B1813,2013-04-15 18:34:00,
2013-04-15 13:39:00,82.6,62.6,28.88,SE,142,8.1,8.1,51,0.00,,,0.00,LWC V2.10 B1813,2013-04-15 18:39:00,
2013-04-15 13:44:00,83.5,62.9,28.88,ESE,103,7.6,11.0,50,0.00,,,0.00,LWC V2.10 B1813,2013-04-15 18:44:00,
2013-04-15 13:49:00,83.5,62.3,28.88,SSW,196,9.6,9.6,49,0.00,,,0.00,LWC V2.10 B1813,2013-04-15 18:49:00,
2013-04-15 13:54:00,83.3,62.7,28.88,SE,137,8.7,11.0,50,0.00,,,0.00,LWC V2.10 B1813,2013-04-15 18:54:00,
2013-04-15 13:59:00,83.5,62.9,28.88,SSE,157,4.0,8.7,50,0.00,,,0.00,LWC V2.10 B1813,2013-04-15 18:59:00,
2013-04-15 14:04:00,84.0,62.8,28.88,South,187,8.7,13.2,49,0.00,,,0.00,LWC V2.10 B1813,2013-04-15 19:04:00,
2013-04-15 14:09:00,83.7,61.3,28.88,SSE,148,6.3,14.1,47,0.00,,,0.00,LWC V2.10 B1813,2013-04-15 19:09:00,
2013-04-15 14:14:00,83.7,60.7,28.88,SSW,204,10.1,10.1,46,0.00,,,0.00,LWC V2.10 B1813,2013-04-15 19:14:00,
2013-04-15 14:19:00,83.7,61.3,28.88,SSE,152,10.5,10.5,47,0.00,,,0.00,LWC V2.10 B1813,2013-04-15 19:19:00,
2013-04-15 14:24:00,83.5,61.1,28.88,SSW,193,8.7,15.9,47,0.00,,,0.00,LWC V2.10 B1813,2013-04-15 19:24:00,
2013-04-15 14:29:00,84.0,62.2,28.88,SSE,152,4.0,10.5,48,0.00,,,0.00,LWC V2.10 B1813,2013-04-15 19:29:00,
2013-04-15 14:34:00,84.7,62.2,28.88,SE,142,8.3,10.5,47,0.00,,,0.00,LWC V2.10 B1813,2013-04-15 19:34:00,
2013-04-15 14:39:00,84.4,61.9,28.88,South,186,3.6,10.5,47,0.00,,,0.00,LWC V2.10 B1813,2013-04-15 19:39:00,
2013-04-15 14:44:00,85.3,62.1,28.88,SSE,164,6.3,11.0,46,0.00,,,0.00,LWC V2.10 B1813,2013-04-15 19:44:00,
2013-04-15 14:49:00,84.7,61.6,28.88,South,190,10.1,10.1,46,0.00,,,0.00,LWC V2.10 B1813,2013-04-15 19:49:00,
2013-04-15 14:54:00,84.7,61.6,28.88,ENE,59,4.9,15.0,46,0.00,,,0.00,LWC V2.10 B1813,2013-04-15 19:54:00,
2013-04-15 14:59:00,84.7,62.2,28.88,SSW,193,11.0,12.3,47,0.00,,,0.00,LWC V2.10 B1813,2013-04-15 19:59:00,
2013-04-15 15:02:00,85.3,62.7,28.88,SSE,158,5.8,11.0,47,0.00,,,0.00,LWC V2.10 B1813,2013-04-15 20:02:00,
2013-04-15 15:06:00,85.1,62.6,28.88,SSW,205,11.9,16.8,47,0.00,,,0.00,LWC V2.10 B1813,2013-04-15 20:06:00,
2013-04-15 15:07:00,85.1,62.6,28.88,SSW,205,11.9,16.8,47,0.00,,,0.00,LWC V2.10 B1813,2013-04-15 20:07:00,
2013-04-15 15:11:00,85.6,63.1,28.88,East,83,5.8,11.0,47,0.00,,,0.00,LWC V2.10 B1813,2013-04-15 20:11:00,
2013-04-15 15:16:00,86.0,63.4,28.85,SSE,152,4.0,9.6,47,0.00,,,0.00,LWC V2.10 B1813,2013-04-15 20:16:00,
2013-04-15 15:21:00,87.3,64.5,28.85,SSE,160,8.7,12.8,47,0.00,,,0.00,LWC V2.10 B1813,2013-04-15 20:21:00,
2013-04-15 15:26:00,86.9,63.6,28.85,SE,126,7.6,8.7,46,0.00,,,0.00,LWC V2.10 B1813,2013-04-15 20:26:00,
2013-04-15 15:31:00,87.1,63.8,28.85,SSE,147,6.3,8.1,46,0.00,,,0.00,LWC V2.10 B1813,2013-04-15 20:31:00,
2013-04-15 15:36:00,87.1,62.5,28.85,South,174,8.3,15.0,44,0.00,,,0.00,LWC V2.10 B1813,2013-04-15 20:36:00,
2013-04-15 15:41:00,87.6,63.0,28.85,South,182,10.5,10.5,44,0.00,,,0.00,LWC V2.10 B1813,2013-04-15 20:41:00,
2013-04-15 15:46:00,87.6,62.3,28.85,ESE,115,5.8,15.4,43,0.00,,,0.00,LWC V2.10 B1813,2013-04-15 20:46:00,
2013-04-15 15:51:00,88.2,62.8,28.85,SE,145,8.3,8.3,43,0.00,,,0.00,LWC V2.10 B1813,2013-04-15 20:51:00,
2013-04-15 15:56:00,88.2,62.8,28.85,East,88,10.5,12.8,43,0.00,,,0.00,LWC V2.10 B1813,2013-04-15 20:56:00,
2013-04-15 16:01:00,88.0,62.0,28.85,SSE,160,10.5,13.2,42,0.00,,,0.00,LWC V2.10 B1813,2013-04-15 21:01:00,
2013-04-15 16:06:00,88.7,61.9,28.85,SSE,159,11.0,12.8,41,0.00,,,0.00,LWC V2.10 B1813,2013-04-15 21:06:00,
2013-04-15 16:11:00,87.8,61.1,28.85,South,178,8.3,9.6,41,0.00,,,0.00,LWC V2.10 B1813,2013-04-15 21:11:00,
2013-04-15 16:16:00,88.2,61.4,28.85,South,185,8.1,10.5,41,0.00,,,0.00,LWC V2.10 B1813,2013-04-15 21:16:00,
2013-04-15 16:21:00,88.2,61.4,28.85,SW,220,8.3,11.0,41,0.00,,,0.00,LWC V2.10 B1813,2013-04-15 21:21:00,
2013-04-15 16:26:00,88.7,61.9,28.85,South,190,8.1,11.9,41,0.00,,,0.00,LWC V2.10 B1813,2013-04-15 21:26:00,
2013-04-15 16:31:00,88.3,61.6,28.85,SSE,153,10.1,14.1,41,0.00,,,0.00,LWC V2.10 B1813,2013-04-15 21:31:00,
2013-04-15 16:36:00,87.6,61.0,28.85,South,190,8.1,17.4,41,0.00,,,0.00,LWC V2.10 B1813,2013-04-15 21:36:00,
2013-04-15 16:41:00,87.1,60.5,28.85,South,187,5.8,8.7,41,0.00,,,0.00,LWC V2.10 B1813,2013-04-15 21:41:00,
2013-04-15 16:46:00,87.3,60.6,28.85,South,172,6.7,11.0,41,0.00,,,0.00,LWC V2.10 B1813,2013-04-15 21:46:00,
2013-04-15 16:51:00,88.0,61.3,28.85,SSE,147,8.1,11.0,41,0.00,,,0.00,LWC V2.10 B1813,2013-04-15 21:51:00,
2013-04-15 16:56:00,88.0,60.6,28.85,SE,140,8.7,13.6,40,0.00,,,0.00,LWC V2.10 B1813,2013-04-15 21:56:00,
2013-04-15 17:01:00,87.4,60.8,28.82,SW,218,8.7,11.0,41,0.00,,,0.00,LWC V2.10 B1813,2013-04-15 22:01:00,
2013-04-15 17:06:00,87.1,60.5,28.82,SE,138,4.0,8.7,41,0.00,,,0.00,LWC V2.10 B1813,2013-04-15 22:06:00,
2013-04-15 17:11:00,86.4,60.5,28.82,SSE,149,8.7,11.0,42,0.00,,,0.00,LWC V2.10 B1813,2013-04-15 22:11:00,
2013-04-15 17:16:00,86.2,60.4,28.82,SE,145,4.0,10.5,42,0.00,,,0.00,LWC V2.10 B1813,2013-04-15 22:16:00,
2013-04-15 17:21:00,85.8,60.7,28.82,SE,132,5.8,11.0,43,0.00,,,0.00,LWC V2.10 B1813,2013-04-15 22:21:00,
2013-04-15 17:26:00,85.6,60.5,28.82,ESE,122,5.8,12.3,43,0.00,,,0.00,LWC V2.10 B1813,2013-04-15 22:26:00,
2013-04-15 17:31:00,85.6,60.5,28.85,SSE,160,8.1,10.5,43,0.00,,,0.00,LWC V2.10 B1813,2013-04-15 22:31:00,
2013-04-15 17:36:00,86.0,60.9,28.85,ESE,104,6.3,8.3,43,0.00,,,0.00,LWC V2.10 B1813,2013-04-15 22:36:00,
2013-04-15 17:41:00,85.6,61.2,28.85,ESE,114,6.3,8.7,44,0.00,,,0.00,LWC V2.10 B1813,2013-04-15 22:41:00,
2013-04-15 17:46:00,85.6,61.2,28.85,South,176,8.1,8.7,44,0.00,,,0.00,LWC V2.10 B1813,2013-04-15 22:46:00,
2013-04-15 17:51:00,86.0,60.9,28.85,SW,236,6.3,12.3,43,0.00,,,0.00,LWC V2.10 B1813,2013-04-15 22:51:00,
2013-04-15 17:56:00,86.0,60.9,28.85,SE,136,5.4,8.3,43,0.00,,,0.00,LWC V2.10 B1813,2013-04-15 22:56:00,
2013-04-15 18:01:00,85.8,62.0,28.85,SSE,155,11.0,12.8,45,0.00,,,0.00,LWC V2.10 B1813,2013-04-15 23:01:00,
2013-04-15 18:06:00,85.5,62.3,28.85,ESE,113,8.3,8.3,46,0.00,,,0.00,LWC V2.10 B1813,2013-04-15 23:06:00,
2013-04-15 18:11:00,84.6,62.1,28.85,ESE,120,5.4,10.5,47,0.00,,,0.00,LWC V2.10 B1813,2013-04-15 23:11:00,
2013-04-15 18:16:00,83.8,62.0,28.85,East,93,3.6,6.3,48,0.00,,,0.00,LWC V2.10 B1813,2013-04-15 23:16:00,
2013-04-15 18:21:00,83.7,62.4,28.85,East,97,4.9,8.7,49,0.00,,,0.00,LWC V2.10 B1813,2013-04-15 23:21:00,
2013-04-15 18:26:00,83.5,62.3,28.85,ESE,113,5.8,8.3,49,0.00,,,0.00,LWC V2.10 B1813,2013-04-15 23:26:00,
2013-04-15 18:31:00,83.1,62.5,28.85,East,83,5.4,11.0,50,0.00,,,0.00,LWC V2.10 B1813,2013-04-15 23:31:00,
2013-04-15 18:36:00,82.9,62.4,28.85,ESE,105,7.6,9.6,50,0.00,,,0.00,LWC V2.10 B1813,2013-04-15 23:36:00,
2013-04-15 18:41:00,82.6,62.0,28.85,East,87,4.9,7.2,50,0.00,,,0.00,LWC V2.10 B1813,2013-04-15 23:41:00,
2013-04-15 18:46:00,82.2,62.3,28.82,ESE,114,5.4,10.5,51,0.00,,,0.00,LWC V2.10 B1813,2013-04-15 23:46:00,
2013-04-15 18:51:00,82.0,62.1,28.82,East,86,7.6,11.0,51,0.00,,,0.00,LWC V2.10 B1813,2013-04-15 23:51:00,
2013-04-15 18:56:00,81.7,62.3,28.82,ESE,103,5.8,11.0,52,0.00,,,0.00,LWC V2.10 B1813,2013-04-15 23:56:00,
2013-04-15 19:01:00,81.5,62.1,28.85,SE,127,5.8,8.3,52,0.00,,,0.00,LWC V2.10 B1813,2013-04-16 00:01:00,
2013-04-15 19:06:00,81.5,62.1,28.85,South,178,9.6,10.1,52,0.00,,,0.00,LWC V2.10 B1813,2013-04-16 00:06:00,
2013-04-15 19:11:00,81.3,62.0,28.85,ESE,111,3.1,8.3,52,0.00,,,0.00,LWC V2.10 B1813,2013-04-16 00:11:00,
2013-04-15 19:16:00,81.1,61.8,28.85,ESE,108,7.6,10.5,52,0.00,,,0.00,LWC V2.10 B1813,2013-04-16 00:16:00,
2013-04-15 19:21:00,81.0,61.7,28.85,East,100,3.6,9.6,52,0.00,,,0.00,LWC V2.10 B1813,2013-04-16 00:21:00,
2013-04-15 19:26:00,80.8,61.5,28.85,ESE,120,8.1,10.5,52,0.00,,,0.00,LWC V2.10 B1813,2013-04-16 00:26:00,
2013-04-15 19:31:00,80.8,62.0,28.85,East,79,4.9,8.7,53,0.00,,,0.00,LWC V2.10 B1813,2013-04-16 00:31:00,
2013-04-15 19:36:00,80.6,61.9,28.85,East,100,8.3,10.1,53,0.00,,,0.00,LWC V2.10 B1813,2013-04-16 00:36:00,
2013-04-15 19:41:00,80.6,61.9,28.85,ESE,105,4.5,8.1,53,0.00,,,0.00,LWC V2.10 B1813,2013-04-16 00:41:00,
2013-04-15 19:46:00,80.2,62.1,28.85,SE,144,3.6,8.1,54,0.00,,,0.00,LWC V2.10 B1813,2013-04-16 00:46:00,
2013-04-15 19:51:00,80.1,61.9,28.85,ESE,108,8.1,10.1,54,0.00,,,0.00,LWC V2.10 B1813,2013-04-16 00:51:00,
2013-04-15 19:56:00,79.7,62.1,28.85,ESE,112,3.6,6.3,55,0.00,,,0.00,LWC V2.10 B1813,2013-04-16 00:56:00,
2013-04-15 20:01:00,79.5,62.4,28.85,NE,50,3.6,5.8,56,0.00,,,0.00,LWC V2.10 B1813,2013-04-16 01:01:00,
2013-04-15 20:06:00,79.3,62.8,28.85,SE,126,3.6,7.6,57,0.00,,,0.00,LWC V2.10 B1813,2013-04-16 01:06:00,
2013-04-15 20:11:00,79.0,62.9,28.85,East,81,5.4,10.5,58,0.00,,,0.00,LWC V2.10 B1813,2013-04-16 01:11:00,
2013-04-15 20:16:00,78.8,63.2,28.85,East,97,3.6,9.6,59,0.00,,,0.00,LWC V2.10 B1813,2013-04-16 01:16:00,
2013-04-15 20:21:00,78.6,63.5,28.85,East,94,7.6,8.7,60,0.00,,,0.00,LWC V2.10 B1813,2013-04-16 01:21:00,
2013-04-15 20:26:00,78.4,63.9,28.85,East,86,4.0,11.0,61,0.00,,,0.00,LWC V2.10 B1813,2013-04-16 01:26:00,
2013-04-15 20:31:00,78.3,63.7,28.85,East,86,6.3,10.1,61,0.00,,,0.00,LWC V2.10 B1813,2013-04-16 01:31:00,
2013-04-15 20:36:00,77.9,63.3,28.85,SE,126,3.1,6.7,61,0.00,,,0.00,LWC V2.10 B1813,2013-04-16 01:36:00,
2013-04-15 20:41:00,77.9,63.3,28.85,SSE,154,4.0,10.5,61,0.00,,,0.00,LWC V2.10 B1813,2013-04-16 01:41:00,
2013-04-15 20:46:00,77.7,63.2,28.85,ESE,106,4.0,8.7,61,0.00,,,0.00,LWC V2.10 B1813,2013-04-16 01:46:00,
2013-04-15 20:51:00,77.5,63.0,28.85,ESE,111,6.3,10.1,61,0.00,,,0.00,LWC V2.10 B1813,2013-04-16 01:51:00,
2013-04-15 20:56:00,77.5,63.0,28.85,SE,137,8.7,12.8,61,0.00,,,0.00,LWC V2.10 B1813,2013-04-16 01:56:00,
2013-04-15 21:01:00,77.4,62.4,28.88,SE,131,8.1,8.1,60,0.00,,,0.00,LWC V2.10 B1813,2013-04-16 02:01:00,
2013-04-15 21:06:00,77.4,62.4,28.88,North,6,5.4,10.1,60,0.00,,,0.00,LWC V2.10 B1813,2013-04-16 02:06:00,
2013-04-15 21:11:00,77.4,62.4,28.88,ENE,77,7.6,11.0,60,0.00,,,0.00,LWC V2.10 B1813,2013-04-16 02:11:00,
2013-04-15 21:16:00,77.2,61.7,28.88,ESE,112,8.7,8.7,59,0.00,,,0.00,LWC V2.10 B1813,2013-04-16 02:16:00,
2013-04-15 21:21:00,77.2,61.7,28.88,SSW,193,7.2,8.7,59,0.00,,,0.00,LWC V2.10 B1813,2013-04-16 02:21:00,
2013-04-15 21:26:00,77.0,61.6,28.88,SE,136,5.4,11.0,59,0.00,,,0.00,LWC V2.10 B1813,2013-04-16 02:26:00,
2013-04-15 21:31:00,76.8,61.9,28.88,ESE,121,6.3,8.3,60,0.00,,,0.00,LWC V2.10 B1813,2013-04-16 02:31:00,
2013-04-15 21:36:00,76.6,61.7,28.88,East,94,6.3,7.6,60,0.00,,,0.00,LWC V2.10 B1813,2013-04-16 02:36:00,
2013-04-15 21:41:00,76.3,62.3,28.88,ESE,107,3.1,12.8,62,0.00,,,0.00,LWC V2.10 B1813,2013-04-16 02:41:00,
2013-04-15 21:46:00,76.1,62.6,28.88,East,96,8.3,9.2,63,0.00,,,0.00,LWC V2.10 B1813,2013-04-16 02:46:00,
2013-04-15 21:51:00,76.1,63.0,28.88,ENE,63,10.1,10.1,64,0.00,,,0.00,LWC V2.10 B1813,2013-04-16 02:51:00,
2013-04-15 21:56:00,75.9,62.8,28.88,SSE,148,6.3,6.3,64,0.00,,,0.00,LWC V2.10 B1813,2013-04-16 02:56:00,
2013-04-15 22:01:00,75.7,63.1,28.91,SE,136,6.3,11.0,65,0.00,,,0.00,LWC V2.10 B1813,2013-04-16 03:01:00,
2013-04-15 22:06:00,75.6,63.4,28.91,ESE,103,7.6,14.1,66,0.00,,,0.00,LWC V2.10 B1813,2013-04-16 03:06:00,
2013-04-15 22:11:00,75.4,63.6,28.91,NE,52,4.9,11.0,67,0.00,,,0.00,LWC V2.10 B1813,2013-04-16 03:11:00,
2013-04-15 22:16:00,75.4,63.6,28.91,ESE,102,3.6,6.3,67,0.00,,,0.00,LWC V2.10 B1813,2013-04-16 03:16:00,
2013-04-15 22:21:00,75.2,63.9,28.91,East,92,8.1,8.1,68,0.00,,,0.00,LWC V2.10 B1813,2013-04-16 03:21:00,
2013-04-15 22:26:00,75.0,64.1,28.91,SE,139,5.4,11.0,69,0.00,,,0.00,LWC V2.10 B1813,2013-04-16 03:26:00,
2013-04-15 22:31:00,75.0,64.1,28.91,ESE,113,6.3,8.3,69,0.00,,,0.00,LWC V2.10 B1813,2013-04-16 03:31:00,
2013-04-15 22:36:00,74.8,64.4,28.91,SE,127,4.0,7.6,70,0.00,,,0.00,LWC V2.10 B1813,2013-04-16 03:36:00,
2013-04-15 22:41:00,74.7,64.2,28.91,SE,142,5.8,6.3,70,0.00,,,0.00,LWC V2.10 B1813,2013-04-16 03:41:00,
2013-04-15 22:46:00,74.5,64.0,28.91,SSE,155,3.6,8.1,70,0.00,,,0.00,LWC V2.10 B1813,2013-04-16 03:46:00,
2013-04-15 22:51:00,74.3,63.9,28.91,ESE,120,4.0,5.8,70,0.00,,,0.00,LWC V2.10 B1813,2013-04-16 03:51:00,
2013-04-15 22:56:00,74.1,64.1,28.91,East,98,5.4,5.4,71,0.00,,,0.00,LWC V2.10 B1813,2013-04-16 03:56:00,
2013-04-15 23:00:00,73.9,63.9,28.94,ESE,120,7.6,7.6,71,0.00,,,0.00,LWC V2.10 B1813,2013-04-16 04:00:00,
2013-04-15 23:05:00,73.8,64.2,28.94,SE,141,3.1,8.1,72,0.00,,,0.00,LWC V2.10 B1813,2013-04-16 04:05:00,
2013-04-15 23:10:00,73.6,64.4,28.94,SE,125,5.8,8.3,73,0.00,,,0.00,LWC V2.10 B1813,2013-04-16 04:10:00,
2013-04-15 23:15:00,73.4,64.2,28.94,SSE,163,4.0,5.8,73,0.00,,,0.00,LWC V2.10 B1813,2013-04-16 04:15:00,
2013-04-15 23:20:00,73.2,64.0,28.94,SE,146,3.6,6.7,73,0.00,,,0.00,LWC V2.10 B1813,2013-04-16 04:20:00,
2013-04-15 23:25:00,72.9,64.1,28.94,SSW,195,5.8,5.8,74,0.00,,,0.00,LWC V2.10 B1813,2013-04-16 04:25:00,
2013-04-15 23:30:00,72.9,64.5,28.94,SE,131,7.6,11.0,75,0.00,,,0.00,LWC V2.10 B1813,2013-04-16 04:30:00,
2013-04-15 23:35:00,72.5,64.1,28.94,SE,135,5.8,8.3,75,0.00,,,0.00,LWC V2.10 B1813,2013-04-16 04:35:00,
2013-04-15 23:40:00,72.3,64.3,28.94,SE,145,5.8,10.1,76,0.00,,,0.00,LWC V2.10 B1813,2013-04-16 04:40:00,
2013-04-15 23:45:00,72.0,64.0,28.94,SSE,148,4.9,8.1,76,0.00,,,0.00,LWC V2.10 B1813,2013-04-16 04:45:00,
2013-04-15 23:50:00,71.8,64.2,28.94,South,174,4.0,10.5,77,0.00,,,0.00,LWC V2.10 B1813,2013-04-16 04:50:00,
2013-04-15 23:55:00,71.6,64.0,28.94,SE,127,8.7,8.7,77,0.00,,,0.00,LWC V2.10 B1813,2013-04-16 04:55:00,